GW7204 Weather Reports


Display with metric or nautical units.
time (UTC)temp
F
wind
direction
speed
MPH
gust
MPH
rain 1hr
in
rain 24hr
in
rain mn
in
humidity
%
barometer
mb
20260502164244 50 37 4.0 7.0 0.00 0.00 0.00 48 1015.5
20260502163631 50 133 2.0 2.0 0.00 0.00 0.00 44 1015.5
20260502163054 50 23 5.0 7.0 0.00 0.00 0.00 46 1015.5
20260502162442 50 353 2.0 3.0 0.00 0.00 0.00 48 1015.5
20260502161816 50 133 1.0 2.0 0.00 0.00 0.00 47 1015.9
20260502161221 50 248 2.0 4.0 0.00 0.00 0.00 48 1015.9
20260502160623 51 54 2.0 4.0 0.00 0.00 0.00 46 1015.9
20260502151833 47 41 6.0 7.0 0.00 0.00 0.00 47 1015.5
20260502151241 47 33 4.0 6.0 0.00 0.00 0.00 47 1015.5
20260502150650 47 221 2.0 3.0 0.00 0.00 0.00 48 1015.9
20260502130631 37 122 0.0 1.0 0.00 0.00 0.00 99 1015.5
20260502123636 35 111 0.0 0.0 0.00 0.00 0.00 99 1015.9
20260502122440 33 137 0.0 0.0 0.00 0.00 0.00 99 1015.9
20260502121222 31 108 0.0 0.0 0.00 0.00 0.00 99 1015.5
20260502120644 31 103 0.0 0.0 0.00 0.00 0.00 99 1015.5
20260502115451 30 103 0.0 0.0 0.00 0.00 0.00 99 1015.5
20260502114813 30 103 0.0 0.0 0.00 0.00 0.00 99 1015.5
20260502114232 30 103 0.0 0.0 0.00 0.00 0.00 99 1015.5
20260502113611 30 101 0.0 0.0 0.00 0.00 0.00 99 1015.5
20260502113039 30 103 0.0 0.0 0.00 0.00 0.00 99 1015.5
20260502112437 29 95 0.0 0.0 0.00 0.00 0.00 99 1015.5
20260502111828 29 96 0.0 0.0 0.00 0.00 0.00 99 1015.5
20260502111226 29 114 0.0 0.0 0.00 0.00 0.00 99 1015.5
20260502110017 29 98 0.0 0.0 0.00 0.00 0.00 99 1015.2
20260502105418 29 85 0.0 0.0 0.00 0.00 0.00 99 1015.2
20260502104829 28 105 0.0 0.0 0.00 0.00 0.00 99 1015.2
20260502104217 29 105 0.0 0.0 0.00 0.00 0.00 99 1015.5
20260502103635 29 103 0.0 0.0 0.00 0.00 0.00 99 1015.5
20260502103043 29 91 0.0 0.0 0.00 0.00 0.00 99 1015.2
20260502102419 29 86 0.0 0.0 0.00 0.00 0.00 99 1015.5
20260502101847 29 95 0.0 0.0 0.00 0.00 0.00 99 1015.5
20260502100631 30 89 0.0 0.0 0.00 0.00 0.00 99 1015.2
20260502091252 30 90 0.0 0.0 0.00 0.00 0.00 99 1015.5
20260502090624 30 88 0.0 0.0 0.00 0.00 0.00 99 1015.5
20260502071224 32 91 0.0 0.0 0.00 0.00 0.00 99 1015.2
20260502070652 32 116 0.0 0.0 0.00 0.00 0.00 99 1015.2
20260502070035 32 122 0.0 0.0 0.00 0.00 0.00 99 1015.2
20260502063651 32 94 0.0 0.0 0.00 0.00 0.00 99 1015.5
20260502063042 32 78 0.0 0.0 0.00 0.00 0.00 99 1015.5
20260502061814 32 110 0.0 0.0 0.00 0.00 0.00 99 1015.9
20260502061249 32 120 0.0 0.0 0.00 0.00 0.00 99 1015.9
20260502060622 33 92 0.0 0.0 0.00 0.00 0.00 99 1015.9
20260502060047 33 95 0.0 0.0 0.00 0.00 0.00 99 1015.9
20260502055448 33 93 0.0 0.0 0.00 0.00 0.00 99 1015.9
20260502054820 33 102 0.0 0.0 0.00 0.00 0.00 99 1015.9
20260502054251 34 102 0.0 0.0 0.00 0.00 0.00 99 1015.9
20260502053021 34 83 0.0 0.0 0.00 0.00 0.00 99 1015.9
20260502052415 34 112 0.0 0.0 0.00 0.00 0.00 99 1016.2
20260502051826 35 124 0.0 0.0 0.00 0.00 0.00 99 1015.9
20260502051220 35 112 0.0 0.0 0.00 0.00 0.00 99 1015.9
20260502050628 35 121 0.0 0.0 0.00 0.00 0.00 99 1015.9
20260502050039 35 106 0.0 0.0 0.00 0.00 0.00 99 1016.2
20260502045433 35 95 0.0 0.0 0.00 0.00 0.00 99 1015.9
20260502044838 35 92 0.0 0.0 0.00 0.00 0.00 99 1016.2
20260502043629 36 105 0.0 0.0 0.00 0.00 0.00 99 1016.2
20260502043043 36 95 0.0 0.0 0.00 0.00 0.00 99 1016.2
20260502042435 36 85 0.0 0.0 0.00 0.00 0.00 99 1016.2
20260502041810 37 96 0.0 0.0 0.00 0.00 0.00 99 1016.2
20260502041217 37 131 0.0 0.0 0.00 0.00 0.00 99 1016.2
20260502040649 37 118 0.0 0.0 0.00 0.00 0.00 99 1016.2
20260502040019 37 134 0.0 0.0 0.00 0.00 0.04 99 1016.2
20260502035442 37 89 0.0 0.0 0.00 0.00 0.04 99 1016.2
20260502034810 36 20 2.0 2.0 0.00 0.00 0.04 99 1016.2
20260502034246 36 112 0.0 0.0 0.00 0.00 0.04 99 1015.9
20260502033649 37 76 0.0 0.0 0.00 0.00 0.04 99 1016.2
20260502033012 37 117 0.0 0.0 0.00 0.00 0.04 99 1016.2
20260502032426 37 116 0.0 0.0 0.00 0.00 0.04 99 1016.2
20260502031841 37 94 0.0 0.0 0.00 0.00 0.04 98 1016.2
20260502031213 37 83 0.0 0.0 0.00 0.00 0.04 98 1016.2
20260502030616 38 92 0.0 0.0 0.00 0.00 0.04 98 1016.2
20260502030046 38 86 0.0 0.0 0.00 0.00 0.04 98 1016.2
20260502025414 38 95 0.0 0.0 0.00 0.00 0.04 98 1015.9
20260502024827 38 107 0.0 0.0 0.00 0.00 0.04 98 1016.2
20260502024219 38 113 0.0 0.0 0.00 0.00 0.04 98 1016.2
20260502023624 38 95 0.0 0.0 0.00 0.00 0.04 97 1016.2
20260502023047 38 70 0.0 0.0 0.00 0.00 0.04 97 1016.2
20260502022427 38 88 0.0 0.0 0.00 0.00 0.04 97 1015.9
20260502021812 38 92 0.0 0.0 0.00 0.00 0.04 97 1015.9
20260502021234 38 89 0.0 0.0 0.00 0.00 0.04 96 1015.9
20260502020614 39 96 0.0 0.0 0.00 0.00 0.04 96 1015.2
20260502020036 39 116 0.0 0.0 0.00 0.00 0.04 96 1015.5
20260502015431 39 123 0.0 0.0 0.00 0.00 0.04 95 1015.5
20260502014842 40 124 0.0 0.0 0.00 0.00 0.04 95 1015.2
20260502014227 40 101 0.0 0.0 0.00 0.00 0.04 95 1015.2
20260502013620 40 63 0.0 0.0 0.00 0.00 0.04 94 1015.5
20260502013036 40 87 0.0 0.0 0.00 0.00 0.04 94 1015.5
20260502012450 41 95 0.0 0.0 0.00 0.00 0.04 94 1015.5
20260502011841 41 95 0.0 0.0 0.00 0.00 0.04 93 1015.5
20260502011224 42 95 0.0 0.0 0.00 0.00 0.04 92 1015.2
20260502010625 42 79 0.0 0.0 0.00 0.00 0.04 92 1014.9
20260502010053 43 88 0.0 0.0 0.00 0.00 0.04 90 1014.5
20260502005446 44 112 0.0 0.0 0.00 0.00 0.04 85 1014.5
20260502004843 45 105 0.0 0.0 0.00 0.00 0.04 86 1014.5
20260502004227 45 118 0.0 0.0 0.00 0.00 0.04 75 1014.5
20260502003649 46 97 0.0 0.0 0.00 0.00 0.04 72 1014.2
20260502002449 47 119 0.0 0.0 0.00 0.00 0.04 69 1014.2
20260502001832 48 283 2.0 2.0 0.00 0.00 0.04 68 1014.5
20260502001246 48 296 4.0 4.0 0.00 0.00 0.04 66 1014.5
20260502000031 50 88 0.0 0.0 0.00 0.00 0.04 66 1014.2
20260501235453 51 138 1.0 1.0 0.00 0.00 0.04 65 1014.2
20260501234840 51 65 1.0 1.0 0.00 0.00 0.04 66 1013.8
20260501234253 50 209 1.0 1.0 0.00 0.00 0.04 67 1013.8
20260501233644 50 28 2.0 3.0 0.00 0.00 0.04 64 1013.8
20260501233024 50 71 0.0 0.0 0.00 0.00 0.04 64 1013.8
20260501232442 50 286 3.0 4.0 0.00 0.00 0.04 65 1013.5
20260501231817 50 74 0.0 1.0 0.00 0.00 0.04 68 1013.8
20260501231255 51 22 2.0 2.0 0.00 0.00 0.04 66 1013.8
20260501230650 51 265 2.0 2.0 0.00 0.00 0.04 63 1013.8
20260501230036 51 222 1.0 1.0 0.00 0.00 0.04 65 1013.8
20260501225415 51 14 2.0 3.0 0.00 0.00 0.04 64 1013.8
20260501224827 51 227 4.0 4.0 0.00 0.00 0.04 65 1013.8
20260501224233 50 348 2.0 2.0 0.00 0.00 0.04 66 1013.5
20260501223617 50 249 4.0 6.0 0.00 0.00 0.04 69 1013.5
20260501223053 51 18 7.0 8.0 0.00 0.00 0.04 65 1013.5
20260501222451 53 274 5.0 7.0 0.00 0.00 0.04 61 1013.5
20260501221839 52 23 4.0 4.0 0.00 0.00 0.04 63 1013.2
20260501221246 51 318 5.0 7.0 0.00 0.00 0.04 62 1013.5
20260501220645 50 38 6.0 11.0 0.00 0.00 0.04 67 1013.2
20260501220021 51 159 3.0 4.0 0.00 0.00 0.04 66 1013.2
20260501215415 51 261 4.0 7.0 0.00 0.00 0.04 65 1013.5
20260501214238 51 20 2.0 3.0 0.00 0.00 0.04 65 1013.2
20260501213041 51 286 9.0 11.0 0.00 0.00 0.04 67 1013.2
20260501211829 51 207 5.0 7.0 0.00 0.00 0.04 65 1012.5
20260501211210 52 292 6.0 8.0 0.00 0.00 0.04 64 1012.5
20260501210617 54 330 6.0 8.0 0.00 0.00 0.04 63 1012.1
20260501210030 53 26 7.0 8.0 0.00 0.00 0.04 64 1012.1
20260501205421 53 290 3.0 3.0 0.00 0.00 0.04 67 1012.1
20260501204849 53 75 2.0 2.0 0.00 0.00 0.04 65 1011.8
20260501203622 52 330 7.0 9.0 0.00 0.00 0.04 69 1011.8
20260501202444 53 37 2.0 3.0 0.00 0.00 0.04 76 1011.8
20260501201809 53 282 4.0 6.0 0.00 0.00 0.04 73 1011.8
20260501201239 54 266 3.0 4.0 0.00 0.00 0.04 73 1011.8
20260501200048 52 171 1.0 2.0 0.00 0.00 0.04 79 1011.8
20260501194853 51 2 4.0 6.0 0.00 0.00 0.04 76 1011.8
20260501194230 51 17 1.0 1.0 0.00 0.00 0.04 79 1012.1
20260501193623 51 270 3.0 3.0 0.00 0.00 0.04 80 1012.1
20260501193039 51 247 1.0 2.0 0.00 0.00 0.04 82 1012.1
20260501192423 50 321 3.0 3.0 0.00 0.00 0.04 83 1012.1
20260501191236 50 114 1.0 1.0 0.00 0.00 0.04 85 1011.8
20260501190646 50 292 3.0 4.0 0.00 0.00 0.04 85 1011.8
20260501190013 50 141 0.0 0.0 0.00 0.00 0.04 86 1012.1
20260501185428 50 188 3.0 4.0 0.00 0.00 0.04 85 1012.1
20260501184841 50 212 2.0 3.0 0.00 0.00 0.04 86 1011.8
20260501184223 50 154 3.0 3.0 0.00 0.00 0.04 87 1012.1
20260501183648 50 227 0.0 1.0 0.00 0.00 0.04 88 1011.8
20260501182421 49 139 0.0 1.0 0.00 0.00 0.04 88 1012.1
20260501181823 49 129 1.0 2.0 0.00 0.00 0.03 86 1011.8
20260501181238 49 176 0.0 1.0 0.00 0.00 0.03 88 1012.1
20260501180653 50 100 4.0 7.0 0.00 0.00 0.03 85 1012.1
20260501180037 50 186 2.0 3.0 0.00 0.00 0.03 86 1011.8
20260501172428 52 68 1.0 2.0 0.00 0.00 0.02 83 1011.5